Location: Bonningues
(50.7927°N, 2.0150°E)
Time: 10:39:39
(UTC+00:00)

Cosmos 2173 Rocket - Pass Details

Date: 08 August 2020
Orbit: 945 x 1000 km, 82.9° (Epoch: 20 September)

Event Time Altitude Azimuth Distance (km) Brightness Sun altitude
Exits shadow 22:21:10 33° 181° (S) 1,578 4.6 -20.1°
Maximum altitude 22:24:12 82° 98° (E) 976 3.9 -20.3°
Drops below altitude 10° 22:30:21 10° 11° (NNE) 2,690 7.1 -20.7°
Sets 22:32:50 0° 11° (N) 3,635 7.9 -20.9°
